Burnet, TX

5:33 PM CDT on May 25, 2017 (GMT -0500)
Burnet Municipal-Craddock

Weather History for KBMQ - November, 2012

Change the Weather History Date:

Wednesday, November 28, 2012

  Actual Average Record
Temperature  
Mean Temperature 51 °F -  
Max Temperature 66 °F 62 °F 75 °F (1999)
Min Temperature 36 °F 43 °F 27 °F (2001)
Degree Days  
Heating Degree Days 14    
Growing Degree Days 1 (Base 50)    
Moisture  
Dew Point 38 °F    
Average Humidity 68    
Maximum Humidity 86    
Minimum Humidity 40    
Precipitation  
Precipitation 0.00 in - - ()
Sea Level Pressure  
Sea Level Pressure 30.35 in    
Wind  
Wind Speed 2 mph (SSE)    
Max Wind Speed 9 mph    
Max Gust Speed -    
Visibility 10 miles    
Events      
Averages and records for this station are not official NWS values.
T = Trace of Precipitation, MM = Missing Value Source: NWS Daily Summary

Daily Weather History Graph

Daily Weather History Graph

Search for Another Location

Airport or City:

Trip Planner

Search our weather history database for the weather conditions in past years. The results will help you decide how hot, cold, wet, or windy it might be!

Date:

Astronomy

Nov. 28, 2012 Rise Set
Actual Time 7:10 AM CST 5:31 PM CST
Civil Twilight 6:44 AM CST 5:57 PM CST
Nautical Twilight 6:14 AM CST 6:27 PM CST
Astronomical Twilight 5:45 AM CST 6:56 PM CST
Moon 5:47 PM CST (11/28) 7:09 AM CST (11/28)
Length of Visible Light 11h 12m
Length of Day
10h 20m
Full, 100% of the Moon is Illuminated
Nov 28
Full
Dec 6
Last Quarter
Dec 13
New
Dec 19
First Quarter
Dec 28
Full

Hourly Weather History & Observations

Time (CST) Temp. Windchill Dew Point Humidity Pressure Visibility Wind Dir Wind Speed Gust Speed Precip Events Conditions
12:53 AM 37.0 °F - 33.1 °F 86% 30.35 in 10.0 mi Calm Calm - N/A   Clear
1:53 AM 37.0 °F 34.5 °F 32.0 °F 82% 30.34 in 10.0 mi ENE 3.5 mph - N/A   Clear
2:53 AM 37.0 °F - 32.0 °F 82% 30.35 in 10.0 mi Calm Calm - N/A   Clear
3:53 AM 36.0 °F - 30.9 °F 82% 30.36 in 10.0 mi Calm Calm - N/A   Clear
4:53 AM 36.0 °F - 32.0 °F 86% 30.37 in 10.0 mi Calm Calm - N/A   Clear
5:53 AM 36.0 °F - 32.0 °F 86% 30.39 in 10.0 mi Calm Calm - N/A   Clear
6:53 AM 36.0 °F - 30.9 °F 82% 30.42 in 10.0 mi Calm Calm - N/A   Clear
7:53 AM 37.9 °F 35.5 °F 33.1 °F 83% 30.43 in 8.0 mi NE 3.5 mph - N/A   Clear
8:53 AM 45.0 °F 43.5 °F 39.0 °F 80% 30.43 in 7.0 mi South 3.5 mph - N/A   Clear
9:53 AM 50.0 °F - 42.1 °F 74% 30.45 in 7.0 mi South 6.9 mph - N/A   Clear
10:53 AM 54.0 °F - 43.0 °F 66% 30.44 in 9.0 mi South 9.2 mph - N/A   Clear
11:53 AM 57.0 °F - 42.1 °F 57% 30.40 in 10.0 mi South 5.8 mph - N/A   Clear
12:53 PM 61.0 °F - 43.0 °F 52% 30.36 in 10.0 mi South 5.8 mph - N/A   Clear
1:53 PM 63.0 °F - 44.1 °F 50% 30.32 in 9.0 mi SSW 5.8 mph - N/A   Clear
2:53 PM 66.0 °F - 42.1 °F 42% 30.29 in 10.0 mi SSE 5.8 mph - N/A   Clear
3:53 PM 66.0 °F - 41.0 °F 40% 30.28 in 10.0 mi SE 8.1 mph - N/A   Clear
4:53 PM 64.0 °F - 41.0 °F 43% 30.28 in 10.0 mi SE 6.9 mph - N/A   Clear
5:53 PM 59.0 °F - 41.0 °F 51% 30.29 in 10.0 mi ESE 3.5 mph - N/A   Clear
6:53 PM 57.0 °F - 41.0 °F 55% 30.31 in 10.0 mi ESE 5.8 mph - N/A   Clear
7:53 PM 53.1 °F - 41.0 °F 64% 30.32 in 10.0 mi Calm Calm - N/A   Clear
8:53 PM 53.1 °F - 41.0 °F 64% 30.30 in 10.0 mi Calm Calm - N/A   Clear
9:53 PM 50.0 °F - 39.9 °F 68% 30.30 in 10.0 mi Calm Calm - N/A   Clear
10:53 PM 48.0 °F - 39.0 °F 71% 30.30 in 10.0 mi Calm Calm - N/A   Clear
11:53 PM 46.0 °F - 39.0 °F 76% 30.29 in 10.0 mi Calm Calm - N/A   Clear